Wind_Speed
25 25 26 27 27 28 29 28 26 26 26 25 25 24 22 21 21 22 22 23 23 24 24 25 24 24 24 21 19 20 21 22 23 19 20 21 22 24 27 29 31 40 43 40 37 35 36
24 25 26 27 28 27 23 23 23 23 22 22 21 21 21 21 21 22 22 22 23 24 25 25 25 25 24 21 19 19 19 21 23 19 19 20 20 22 26 25 28 34 31 41 37 36 36
22 28 25 23 23 23 21 21 21 20 19 18 19 19 20 21 23 22 23 22 22 25 24 24 25 26 25 19 19 21 20 20 22 19 19 20 21 23 23 26 24 28 36 38 33 32 33
24 24 23 21 19 18 18 18 17 19 20 20 21 22 22 23 25 24 24 23 23 27 24 24 25 26 25 23 20 23 22 23 21 20 20 19 21 26 27 27 24 20 26 34 34 31 31
20 18 21 19 19 21 21 21 21 24 24 21 23 22 23 25 26 26 25 23 25 27 26 25 26 25 25 26 23 25 24 19 17 18 18 18 22 28 29 29 28 27 33 29 29 30 27
17 19 21 22 24 23 23 23 24 21 26 29 27 26 23 24 27 29 28 23 24 28 27 26 28 26 21 24 21 16 19 17 17 17 17 20 23 30 33 32 26 17 26 21 25 22 19
20 17 16 18 22 22 23 25 29 30 28 28 26 24 22 23 26 28 29 23 23 29 29 26 27 24 17 20 18 19 23 20 22 20 18 20 24 31 29 33 28 23 27 29 30 23 22
20 20 19 22 24 27 29 27 26 26 26 26 24 24 21 22 25 26 28 25 23 27 35 26 29 35 24 27 33 26 24 24 23 21 14 19 24 15 18 22 26 25 24 32 32 24 24
20 22 25 26 24 23 24 22 21 21 23 24 23 23 22 22 22 25 25 23 21 25 36 35 26 27 26 31 30 23 27 28 24 23 19 21 11 7 11 15 24 28 26 25 29 29 31
24 23 21 19 17 15 16 16 17 19 21 23 22 22 21 19 21 22 22 20 19 21 26 27 17 12 17 22 21 19 28 22 22 22 16 14 17 17 16 22 20 27 25 28 24 22 22
19 16 14 13 12 12 13 15 16 18 19 21 21 22 20 19 19 22 20 17 15 14 6 10 4 7 6 6 8 15 12 16 17 19 20 11 9 8 13 20 15 26 20 20 21 18 18
13 12 11 10 10 11 13 15 17 18 19 20 21 20 19 19 19 22 18 15 12 5 8 7 7 9 9 10 9 10 8 13 15 19 21 22 21 19 15 13 14 14 16 17 23 19 10
12 11 10 10 11 12 14 17 19 20 21 22 21 19 17 18 20 20 16 14 6 8 3 4 7 6 15 14 13 11 10 12 15 14 21 21 22 19 16 14 16 12 12 3 5 7 6
13 11 12 12 13 15 17 19 21 23 24 24 22 17 14 18 19 18 15 13 10 5 9 19 20 15 19 15 14 15 18 18 20 16 9 6 4 8 2 9 10 15 21 6 4 3 3
13 13 13 15 16 17 19 21 22 24 24 24 20 15 12 17 15 16 16 15 9 9 15 18 16 5 3 5 9 13 23 26 23 20 11 7 5 5 7 10 8 9 17 20 5 5 1
14 15 16 17 18 19 20 21 22 24 24 24 20 14 15 14 11 14 18 24 16 15 18 16 13 5 11 13 11 8 19 10 24 16 18 6 5 4 6 7 8 6 10 6 7 3 2
16 17 18 18 19 20 21 22 23 23 23 23 20 14 16 12 12 15 17 20 22 22 20 20 12 16 17 18 14 9 5 10 13 16 17 15 8 2 4 7 12 9 9 9 5 5 2
17 18 18 19 20 21 22 22 22 22 23 22 21 11 14 13 13 12 17 18 15 17 16 20 19 18 18 11 9 5 6 6 10 11 10 12 5 9 16 13 10 13 14 14 5 3 8
18 18 19 20 21 22 22 21 21 21 23 21 18 9 13 13 10 15 16 20 21 21 19 13 13 10 10 18 10 5 1 6 6 6 3 2 2 5 0 2 10 12 15 13 16 16 9
19 19 20 21 22 21 21 20 20 20 19 15 13 5 11 16 20 19 20 20 17 17 21 15 18 14 18 24 11 9 6 6 3 4 3 5 1 3 5 9 12 10 10 12 17 7 7
20 21 22 22 23 22 21 20 18 17 14 13 12 11 12 7 10 9 7 10 15 19 17 16 16 16 13 20 11 9 6 2 4 5 6 4 5 8 12 12 15 19 23 20 19 19 15
22 22 22 23 21 20 19 19 17 14 13 17 17 17 15 14 15 16 16 14 13 7 16 13 17 17 16 15 15 16 11 10 4 2 2 2 3 7 13 14 13 21 22 25 28 24 26
23 23 23 22 21 20 19 16 14 15 14 20 19 20 19 18 18 18 16 15 12 15 7 14 14 17 19 21 17 11 13 9 4 4 6 6 6 9 7 10 22 18 7 13 16 26 24
24 24 23 22 19 17 16 11 10 10 15 16 15 18 19 22 20 17 15 15 18 20 21 16 12 15 10 14 20 14 14 15 13 11 11 14 15 13 12 13 4 9 11 11 17 17 18
24 24 22 20 18 16 14 14 13 12 14 13 15 18 19 22 20 16 12 12 14 16 18 20 6 13 13 14 12 13 10 12 15 16 18 18 17 8 5 6 19 23 5 9 14 10 16
24 24 21 19 17 15 14 16 18 15 16 19 19 22 23 23 25 16 14 11 11 13 16 9 8 7 4 8 11 7 5 4 1 2 5 5 14 18 10 3 4 6 3 19 18 16 13
23 22 20 17 15 15 17 19 21 22 17 18 24 26 28 27 24 18 14 12 13 13 16 13 9 4 3 3 3 4 5 4 3 4 4 5 10 19 22 12 13 23 24 18 10 7 8
23 21 19 17 16 18 19 20 23 25 19 16 20 18 26 32 23 17 13 14 15 11 13 14 7 9 2 5 3 2 3 4 5 6 4 4 5 8 11 9 13 11 10 9 12 15 15
22 20 18 18 18 17 18 20 22 25 19 19 20 19 22 25 18 18 21 15 12 11 14 10 9 8 12 2 5 5 5 4 4 5 6 5 5 6 9 6 14 9 5 10 14 12 14
Wind_Direction
284 283 284 282 282 279 279 282 281 280 281 282 285 286 287 288 287 285 284 284 284 282 278 276 274 272 265 262 262 263 260 266 268 266 261 248 250 248 249 251 249 250 254 256 261 259 258
279 279 278 279 277 279 279 281 282 283 285 287 287 289 290 289 286 284 284 284 284 283 280 279 277 273 267 267 266 258 255 267 269 267 261 255 262 253 261 258 249 250 256 254 252 253 255
271 277 271 269 275 274 278 281 284 285 288 291 294 294 292 292 289 288 288 286 285 280 279 280 277 273 268 271 265 263 260 256 265 259 256 258 256 252 253 264 269 262 259 252 250 250 251
271 265 268 268 267 269 271 274 279 281 293 295 298 301 299 294 291 288 286 287 286 280 285 280 279 278 273 269 266 262 259 264 256 251 245 239 243 247 248 256 249 257 257 262 258 249 249
257 258 258 262 269 268 274 281 280 279 282 285 289 284 284 287 287 285 285 285 284 283 283 281 278 277 274 266 261 260 261 254 259 249 239 234 238 243 246 252 263 261 261 262 263 254 254
257 257 259 266 271 273 274 278 278 276 280 279 280 283 284 283 281 283 284 287 284 282 279 278 276 275 265 260 258 260 256 261 257 248 243 238 240 240 244 245 244 256 257 266 260 260 253
259 251 255 260 272 277 277 280 280 280 282 282 282 282 282 282 283 286 286 291 293 291 282 277 269 260 263 270 250 257 262 254 248 245 248 238 234 242 251 252 256 257 255 263 256 250 258
250 259 262 268 274 276 278 280 280 282 283 282 283 282 283 282 283 285 290 298 304 299 286 270 274 273 260 251 256 255 248 249 255 259 247 232 244 260 264 256 251 252 259 256 264 256 262
261 270 275 277 275 275 279 282 285 288 288 290 290 287 284 282 282 284 289 299 306 304 301 286 288 272 258 252 253 244 239 247 249 247 234 234 232 223 266 260 248 253 258 265 269 269 259
270 274 275 273 273 277 284 290 294 293 298 298 299 293 289 282 282 283 288 297 304 312 307 307 294 278 255 250 255 218 220 240 237 233 215 248 251 255 265 268 263 265 260 262 268 274 277
266 264 262 266 274 286 290 294 297 297 299 300 298 297 293 289 280 276 280 288 295 309 310 325 303 282 254 221 197 194 222 227 219 216 210 219 245 238 266 276 282 271 269 251 254 250 290
247 253 262 270 287 297 303 306 308 305 303 298 296 293 293 288 276 271 278 279 283 270 251 320 300 296 262 203 189 192 208 202 217 225 237 244 253 263 270 284 261 265 256 261 249 248 252
245 254 259 270 286 298 304 312 312 312 307 303 300 298 301 285 270 272 268 265 251 219 275 295 306 290 253 253 219 216 211 206 207 215 242 256 260 260 264 272 267 239 218 252 207 217 240
248 257 269 280 290 299 307 312 312 313 308 304 303 311 301 279 275 267 257 247 219 249 263 282 310 305 262 246 241 240 238 228 223 225 254 228 272 213 198 284 262 231 206 211 243 216 277
253 264 273 282 291 300 305 308 309 307 302 299 301 306 298 292 290 265 241 229 238 258 275 297 312 332 175 216 304 254 242 243 234 230 220 211 257 250 266 304 234 192 214 226 318 235 283
261 271 279 287 294 299 303 304 304 302 297 295 300 305 298 296 285 259 235 237 243 233 251 273 320 296 348 332 354 215 238 248 234 230 219 237 275 280 261 234 207 217 211 216 226 294 242
268 276 282 288 293 298 302 303 301 298 293 293 294 297 291 283 269 254 240 252 261 265 267 282 273 290 292 338 323 323 237 221 206 214 222 222 249 193 206 230 217 213 244 232 226 224 290
270 277 284 290 295 299 300 301 300 295 290 286 283 281 273 266 258 256 262 280 295 294 285 276 285 291 284 327 327 308 4 268 160 151 159 206 248 254 253 261 273 275 255 235 211 198 225
271 280 287 292 296 298 300 299 294 286 280 279 278 260 252 240 240 263 286 281 286 292 300 288 282 247 285 269 317 272 281 130 127 116 82 108 265 306 269 81 219 236 246 264 257 257 263
275 283 289 294 297 298 296 294 284 273 277 277 274 259 228 236 246 259 274 292 294 301 296 278 282 279 271 250 277 291 291 147 145 168 280 350 3 312 295 296 295 274 266 253 246 227 268
281 286 291 293 294 297 295 291 284 265 256 260 259 259 243 237 229 227 262 291 317 320 313 300 280 262 280 275 283 274 262 326 277 256 252 291 292 293 300 311 296 289 282 276 276 269 261
281 287 290 290 294 290 286 282 274 256 234 235 244 259 261 265 267 272 273 281 311 308 322 316 291 280 253 259 250 262 279 251 299 276 170 223 276 303 311 318 299 300 286 271 260 267 261
282 287 289 290 289 287 284 272 258 243 238 239 239 246 259 269 275 281 274 267 269 318 295 316 289 281 243 243 244 253 256 245 214 235 268 282 292 308 296 306 309 305 275 299 279 258 261
282 286 288 286 281 281 276 250 243 241 246 246 240 248 255 264 270 280 285 276 274 273 287 320 280 277 251 229 231 243 254 258 252 258 271 280 284 284 288 313 258 262 336 310 289 273 262
281 285 282 280 277 272 257 228 224 227 248 250 248 247 255 264 269 274 284 286 277 271 287 307 219 265 275 187 217 237 251 263 259 264 270 270 274 261 252 247 285 298 330 313 350 282 237
280 279 277 273 268 258 238 227 222 215 236 262 266 258 249 256 265 269 276 267 261 270 288 303 163 230 304 161 183 182 182 200 264 233 226 222 247 240 245 252 259 215 306 339 313 289 261
273 272 270 266 264 245 239 235 228 219 228 250 269 276 256 246 259 254 257 240 234 264 289 299 74 181 213 185 157 161 166 184 226 228 266 268 233 230 235 242 264 267 278 302 295 305 285
267 265 261 262 255 253 249 239 223 219 229 244 272 292 274 248 261 251 246 253 255 267 296 314 34 50 104 192 162 177 187 202 238 242 259 266 217 225 232 228 256 275 262 263 300 298 286
260 257 256 258 256 249 239 228 220 218 227 242 264 280 271 244 256 239 242 243 245 265 286 300 327 357 22 125 191 182 205 220 249 272 281 244 225 273 229 247 260 275 326 304 283 282 297
Height
3088 3087 3086 3087 3086 3085 3084 3084 3083 3083 3081 3081 3080 3079 3077 3075 3073 3072 3071 3069 3068 3066 3064 3064 3062 3062 3063 3063 3063 3059 3059 3060 3060 3062 3062 3061 3061 3061 3059 3059 3061 3054 3055 3058 3060 3062 3063
3081 3081 3080 3079 3080 3080 3078 3078 3078 3077 3076 3076 3075 3074 3072 3070 3068 3066 3066 3065 3063 3061 3059 3058 3057 3056 3056 3058 3054 3054 3054 3054 3054 3056 3056 3057 3057 3056 3054 3054 3054 3053 3051 3051 3052 3054 3057
3075 3076 3075 3075 3075 3074 3074 3073 3073 3072 3071 3070 3069 3068 3066 3064 3062 3061 3061 3059 3058 3055 3054 3053 3052 3050 3050 3052 3050 3049 3049 3049 3049 3051 3051 3052 3053 3052 3051 3051 3051 3050 3048 3046 3046 3048 3049
3069 3070 3070 3070 3070 3069 3069 3067 3066 3066 3067 3066 3065 3064 3062 3060 3057 3056 3055 3054 3053 3048 3048 3047 3046 3044 3042 3044 3044 3042 3042 3043 3044 3045 3046 3048 3047 3047 3047 3048 3048 3046 3045 3041 3041 3045 3045
3063 3063 3064 3065 3065 3064 3064 3064 3062 3062 3062 3062 3062 3060 3060 3057 3053 3051 3049 3049 3046 3044 3043 3041 3041 3040 3038 3037 3038 3036 3035 3036 3039 3040 3042 3043 3043 3043 3045 3045 3043 3042 3038 3039 3039 3041 3041
3061 3059 3059 3061 3061 3060 3059 3059 3058 3057 3057 3057 3056 3055 3055 3052 3049 3046 3044 3045 3042 3039 3038 3037 3035 3038 3035 3031 3032 3032 3032 3033 3034 3035 3038 3039 3038 3038 3039 3041 3036 3037 3039 3036 3035 3037 3037
3056 3056 3056 3056 3057 3056 3055 3054 3054 3052 3051 3051 3051 3049 3049 3046 3043 3040 3040 3041 3041 3035 3032 3030 3028 3029 3028 3026 3027 3028 3027 3029 3029 3030 3033 3034 3033 3030 3034 3037 3037 3035 3034 3031 3031 3033 3033
3052 3051 3051 3052 3051 3051 3050 3049 3048 3047 3045 3046 3045 3043 3043 3041 3039 3035 3034 3035 3035 3030 3018 3023 3021 3016 3021 3021 3018 3022 3022 3025 3022 3024 3026 3030 3025 3030 3031 3031 3033 3031 3029 3027 3027 3028 3028
3047 3047 3047 3048 3047 3045 3045 3044 3043 3041 3040 3041 3039 3038 3038 3037 3034 3032 3031 3032 3031 3028 3017 3010 3012 3010 3011 3012 3012 3016 3017 3017 3017 3020 3021 3023 3024 3025 3026 3027 3026 3026 3026 3026 3025 3024 3023
3041 3041 3042 3042 3043 3041 3041 3040 3039 3037 3035 3035 3035 3033 3032 3032 3033 3029 3028 3029 3028 3025 3016 3008 3004 3002 3004 3004 3006 3009 3010 3014 3014 3016 3020 3020 3021 3020 3022 3022 3023 3020 3023 3023 3022 3022 3019
3036 3037 3037 3037 3038 3037 3036 3036 3035 3034 3031 3030 3030 3028 3027 3026 3027 3024 3026 3026 3026 3026 3024 3010 3005 3003 3002 3005 3004 3006 3008 3008 3011 3013 3016 3016 3016 3016 3017 3018 3020 3017 3017 3018 3019 3019 3019
3031 3034 3034 3035 3034 3034 3034 3033 3030 3029 3028 3025 3024 3024 3024 3022 3020 3019 3023 3023 3024 3028 3018 3009 3006 3004 3003 3003 3003 3003 3005 3008 3011 3013 3012 3013 3013 3013 3013 3014 3015 3014 3013 3014 3016 3019 3010
3028 3030 3031 3031 3031 3030 3030 3028 3026 3023 3022 3020 3019 3019 3019 3017 3015 3016 3019 3020 3024 3020 3013 3009 3005 3003 3003 3004 3003 3003 3004 3005 3008 3011 3009 3009 3008 3009 3009 3010 3010 3010 3013 3013 3013 3012 3000
3025 3026 3027 3028 3027 3025 3026 3023 3021 3018 3017 3015 3013 3015 3014 3011 3011 3012 3015 3017 3016 3011 3010 3006 3005 3002 3000 3003 3001 3001 3002 3002 3005 3007 3007 3006 3006 3005 3005 3005 3006 3004 3009 3009 3004 3003 2999
3021 3022 3022 3023 3022 3020 3019 3018 3016 3013 3011 3009 3009 3010 3010 3007 3008 3008 3011 3010 3009 3010 3010 3007 3005 3001 2999 3000 2999 2998 2999 2999 3001 3003 3006 3003 3004 3003 3002 3002 3004 3003 3005 3007 3005 3003 3002
3016 3017 3018 3017 3017 3016 3014 3013 3011 3009 3006 3003 3004 3006 3005 3005 3004 3005 3006 3004 3005 3007 3006 3007 3006 3004 3000 2998 2998 2997 2996 2995 2997 2999 3002 3003 3003 3001 3000 3000 3002 3002 3005 3006 3004 3002 3000
3012 3012 3013 3012 3011 3010 3008 3007 3005 3003 3000 2999 3000 3002 3001 3002 3001 3001 3001 3001 3002 3004 3007 3006 3005 3003 3000 3000 2998 2996 2994 2995 2995 2995 2998 3001 3002 3002 2999 2998 2999 3002 3002 3002 3002 3002 2999
3006 3008 3008 3007 3005 3004 3003 3001 2999 2997 2995 2995 2995 3000 2998 2998 3000 2999 2999 3000 3002 3001 3004 3003 3002 3002 3000 2999 2996 2994 2992 2992 2992 2993 2996 2999 2998 2998 2997 2997 2998 2999 2998 2999 2999 2999 2998
3002 3002 3002 3000 2999 2998 2997 2995 2994 2993 2990 2991 2992 2996 2994 2995 2997 2997 2998 2999 2999 2999 2999 2998 2998 3000 2999 2998 2997 2992 2991 2992 2992 2992 2994 2996 2997 2996 2994 2995 2997 2997 2997 2997 2997 2997 2995
2996 2996 2996 2994 2993 2992 2991 2990 2989 2988 2986 2988 2989 2992 2993 2993 2994 2996 2996 2996 2996 2996 2994 2995 2993 2995 2995 2995 2994 2990 2988 2989 2990 2992 2993 2995 2996 2998 2998 2998 2998 2996 2996 2995 2994 2993 2992
2989 2990 2989 2988 2987 2985 2985 2985 2984 2983 2983 2985 2986 2988 2989 2991 2992 2993 2993 2994 2993 2992 2991 2990 2990 2991 2992 2991 2990 2989 2991 2989 2990 2991 2993 2994 2995 2997 2996 2995 2994 2993 2991 2992 2990 2990 2991
2984 2983 2982 2982 2980 2980 2980 2979 2979 2979 2980 2982 2984 2985 2987 2988 2989 2990 2990 2991 2990 2990 2988 2986 2986 2986 2987 2987 2989 2988 2989 2990 2989 2990 2992 2994 2995 2995 2995 2993 2991 2988 2987 2985 2985 2984 2984
2977 2976 2976 2975 2974 2974 2974 2974 2975 2976 2976 2977 2980 2982 2984 2984 2985 2986 2987 2987 2987 2986 2984 2983 2981 2981 2980 2981 2984 2985 2986 2987 2986 2988 2990 2992 2993 2995 2993 2992 2990 2984 2982 2979 2977 2976 2979
2970 2970 2969 2968 2969 2969 2969 2970 2972 2974 2973 2975 2978 2980 2981 2980 2981 2983 2983 2983 2982 2983 2981 2978 2977 2976 2977 2977 2980 2981 2981 2980 2982 2985 2987 2989 2991 2992 2991 2990 2987 2979 2978 2974 2971 2971 2973
2963 2962 2962 2962 2963 2964 2964 2966 2969 2971 2972 2973 2974 2976 2977 2976 2977 2979 2980 2979 2979 2979 2977 2973 2975 2974 2971 2973 2977 2979 2979 2980 2981 2982 2984 2986 2987 2989 2989 2987 2982 2975 2974 2973 2970 2968 2968
2956 2955 2955 2956 2957 2958 2959 2962 2964 2967 2969 2969 2971 2972 2973 2973 2973 2976 2976 2977 2976 2976 2974 2971 2969 2971 2969 2972 2974 2975 2977 2978 2979 2980 2981 2982 2984 2987 2987 2986 2983 2973 2971 2971 2970 2966 2966
2948 2948 2949 2950 2951 2953 2954 2957 2960 2963 2966 2967 2967 2967 2967 2967 2969 2971 2972 2973 2974 2974 2972 2969 2967 2971 2971 2971 2972 2974 2976 2977 2979 2979 2980 2980 2980 2980 2981 2983 2976 2971 2970 2971 2971 2970 2963
2941 2942 2943 2944 2945 2947 2949 2951 2954 2958 2961 2963 2963 2963 2963 2962 2966 2968 2969 2970 2970 2972 2971 2970 2969 2969 2970 2972 2973 2974 2975 2976 2977 2977 2977 2978 2978 2978 2978 2980 2974 2966 2967 2970 2970 2965 2963
2934 2935 2936 2937 2939 2941 2943 2945 2949 2953 2957 2958 2958 2960 2958 2960 2963 2963 2965 2967 2968 2969 2969 2971 2972 2971 2971 2971 2972 2974 2974 2975 2976 2975 2975 2975 2975 2974 2975 2971 2967 2965 2965 2966 2966 2964 2962